Location: Devore Heights
(34.2372°N, 117.4156°W)
Time: 14:49:34
(UTC+00:00)

Altair - All Passes

Search period start: 13 September 2024 00:00
Search period end: 23 September 2024 00:00
Orbit: 1501 x 1682 km, 47.2° (Epoch: 12 September)

Date Brightness Start Highest point End Pass type
(mag) Time Alt. Az. Time Alt. Az. Time Alt. Az.
13 Sep - 08:17:22 10° S 08:25:15 28° SE 08:33:19 10° ENE visible
13 Sep - 10:19:14 10° SW 10:29:13 89° NW 10:39:28 10° NE visible
13 Sep - 12:25:34 10° W 12:35:07 44° NNW 12:44:45 10° NE visible
13 Sep - 14:32:42 10° WNW 14:42:12 41° N 14:51:35 10° E daylight
13 Sep - 16:38:13 10° NW 16:48:25 77° NNE 16:58:18 10° ESE daylight
13 Sep - 18:43:53 10° WNW 18:52:41 36° SW 19:01:15 10° SSE daylight
14 Sep - 07:52:40 10° S 08:00:08 25° SE 08:07:44 10° ENE visible
14 Sep - 09:54:01 10° SW 10:03:58 86° SE 10:14:11 10° NE visible
14 Sep - 12:00:08 10° W 12:09:43 46° NNW 12:19:25 10° NE visible
14 Sep - 14:07:21 10° WNW 14:16:48 41° N 14:26:08 10° ENE daylight
14 Sep - 16:12:56 10° NW 16:23:08 72° NNE 16:33:01 10° ESE daylight
14 Sep - 18:18:28 10° WNW 18:27:33 40° SW 18:36:22 10° SSE daylight
15 Sep - 07:28:03 10° S 07:35:01 22° SE 07:42:07 10° ENE visible
15 Sep - 09:28:50 10° SW 09:38:43 80° SE 09:48:54 10° NE visible
15 Sep - 11:34:43 10° W 11:44:20 48° NNW 11:54:05 10° NE visible
15 Sep - 13:41:58 10° WNW 13:51:22 40° N 14:00:42 10° ENE daylight
15 Sep - 15:47:39 10° NW 15:57:50 68° NNE 16:07:43 10° ESE daylight
15 Sep - 17:53:04 10° WNW 18:02:23 44° SW 18:11:27 10° SSE daylight
16 Sep - 07:03:31 10° SSE 07:09:55 20° ESE 07:16:25 10° E visible
16 Sep - 09:03:42 10° SW 09:13:30 75° SE 09:23:36 10° ENE visible
16 Sep - 11:09:18 10° W 11:18:57 50° NNW 11:28:47 10° NE visible
16 Sep - 13:16:35 10° WNW 13:25:57 39° N 13:35:16 10° ENE daylight
16 Sep - 15:22:23 10° NW 15:32:30 64° NNE 15:42:24 10° ESE daylight
16 Sep - 17:27:42 10° WNW 17:37:13 48° SW 17:46:28 10° SSE daylight
17 Sep - 06:39:07 10° SSE 06:44:49 17° ESE 06:50:35 10° E night (unlit)
17 Sep - 08:38:35 10° SW 08:48:17 69° SE 08:58:18 10° ENE visible
17 Sep - 10:43:54 10° W 10:53:35 52° NNW 11:03:28 10° NE visible
17 Sep - 12:51:11 10° WNW 13:00:31 39° N 13:09:50 10° ENE visible
17 Sep - 14:57:06 10° NW 15:07:11 61° NNE 15:17:04 10° ESE daylight
17 Sep - 17:02:20 10° WNW 17:12:03 53° SW 17:21:28 10° SSE daylight
17 Sep - 19:13:52 10° WSW 19:15:12 10° WSW 19:16:32 10° SW daylight
18 Sep - 06:14:54 10° SSE 06:19:43 15° ESE 06:24:36 10° E night (unlit)
18 Sep - 08:13:29 10° SW 08:23:04 64° SE 08:33:00 10° ENE visible
18 Sep - 10:18:32 10° W 10:28:14 54° NNW 10:38:10 10° NE visible
18 Sep - 12:25:47 10° WNW 12:35:05 39° N 12:44:25 10° ENE visible
18 Sep - 14:31:50 10° NW 14:41:51 58° NNE 14:51:42 10° ESE daylight
18 Sep - 16:37:00 10° WNW 16:46:51 58° SW 16:56:26 10° SSE daylight
18 Sep - 18:46:30 10° W 18:50:07 12° WSW 18:53:43 10° SW daylight
19 Sep - 05:50:59 10° SE 05:54:38 13° ESE 05:58:19 10° E night (unlit)
19 Sep - 07:48:25 10° SSW 07:57:53 59° SE 08:07:41 10° ENE visible
19 Sep - 09:53:10 10° WSW 10:02:53 57° NNW 10:12:53 10° NE visible
19 Sep - 12:00:23 10° WNW 12:09:40 39° N 12:19:00 10° ENE visible
19 Sep - 14:06:33 10° NW 14:16:30 55° NNE 14:26:20 10° E daylight
19 Sep - 16:11:42 10° WNW 16:21:39 63° SW 16:31:22 10° SE daylight
19 Sep - 18:20:11 10° W 18:25:02 15° WSW 18:29:50 10° SSW daylight
20 Sep - 05:27:59 10° SE 05:29:33 10° ESE 05:31:08 10° ESE night (unlit)
20 Sep - 07:23:23 10° SSW 07:32:42 54° SE 07:42:21 10° ENE visible
20 Sep - 09:27:48 10° WSW 09:37:33 60° NNW 09:47:35 10° NE visible
20 Sep - 11:34:58 10° WNW 11:44:14 39° N 11:53:35 10° ENE visible
20 Sep - 13:41:15 10° NW 13:51:09 52° NNE 14:00:56 10° E daylight
20 Sep - 15:46:23 10° WNW 15:56:27 68° SW 16:06:16 10° SE daylight
20 Sep - 17:54:10 10° W 17:59:56 17° WSW 18:05:38 10° SSW daylight
21 Sep - 06:58:23 10° SSW 07:07:32 49° SE 07:17:00 10° ENE visible
21 Sep - 09:02:29 10° WSW 09:12:14 63° NNW 09:22:18 10° NE visible
21 Sep - 11:09:33 10° WNW 11:18:48 39° N 11:28:10 10° ENE visible
21 Sep - 13:15:57 10° NW 13:25:47 50° NNE 13:35:31 10° E daylight
21 Sep - 15:21:05 10° WNW 15:31:13 74° SW 15:41:09 10° SE daylight
21 Sep - 17:28:20 10° W 17:34:50 19° WSW 17:41:15 10° SSW daylight
22 Sep - 06:33:26 10° SSW 06:42:22 45° SE 06:51:38 10° ENE visible
22 Sep - 08:37:10 10° WSW 08:46:55 67° NNW 08:57:01 10° NE visible
22 Sep - 10:44:08 10° WNW 10:53:22 40° N 11:02:46 10° ENE visible
22 Sep - 12:50:39 10° NW 13:00:24 48° NNE 13:10:06 10° E visible
22 Sep - 14:55:48 10° NW 15:05:59 79° SW 15:15:59 10° SE daylight
22 Sep - 17:02:37 10° W 17:09:43 22° SW 17:16:43 10° S daylight
